When you browse on this site, cookies collect data to enhance your experience and personalize the content and advertising you see.
Visit our Privacy Policy to learn more. By continuing to use the site, you agree to this use of cookies and data.
  • In United Kingdom
  • List of Countries
  • For 7 days
  • Water Temperature
  • Satellite Maps
  • Weather Map
  • Weather Widgets
  • user-avatar
    Login

    Hourly Weather Kalgoorlie

    Today, 21 February, Thursday

    Time Temperature Precipitation Wind Pressure Humidity
    00:00 +32°C° 0 mm 9 mps 727 mmHg 22%
    01:00 +31°C° 0 mm 9 mps 727 mmHg 22%
    02:00 +29°C° 0 mm 8 mps 727 mmHg 24%
    03:00 +29°C° 0 mm 8 mps 727 mmHg 24%
    04:00 +28°C° 0 mm 7 mps 727 mmHg 25%
    05:00 +28°C° 0 mm 7 mps 727 mmHg 25%
    06:00 +29°C° 0 mm 7 mps 727 mmHg 26%
    07:00 +30°C° 0 mm 7 mps 727 mmHg 26%
    08:00 +33°C° 0 mm 7 mps 728 mmHg 27%
    09:00 +35°C° 0 mm 7 mps 728 mmHg 22%
    10:00 +39°C° 0 mm 6 mps 728 mmHg 17%
    11:00 +41°C° 0 mm 6 mps 727 mmHg 11%
    12:00 +42°C° 0 mm 6 mps 727 mmHg 10%
    13:00 +42°C° 0 mm 6 mps 727 mmHg 9%
    14:00 +44°C° 0 mm 6 mps 726 mmHg 8%
    15:00 +43°C° 0 mm 5 mps 726 mmHg 8%
    16:00 +43°C° 0 mm 5 mps 726 mmHg 7%
    17:00 +43°C° 0 mm 5 mps 726 mmHg 7%
    18:00 +41°C° 0 mm 5 mps 726 mmHg 8%
    19:00 +40°C° 0 mm 4 mps 726 mmHg 9%
    20:00 +37°C° 0 mm 4 mps 726 mmHg 10%
    21:00 +36°C° 0 mm 4 mps 726 mmHg 11%
    22:00 +35°C° 0 mm 4 mps 727 mmHg 12%
    23:00 +33°C° 0 mm 5 mps 727 mmHg 13%

    Tomorrow, 22 February, Friday

    Time Temperature Precipitation Wind Pressure Humidity
    00:00 +32°C° 0 mm 4 mps 727 mmHg 14%
    01:00 +32°C° 0 mm 4 mps 727 mmHg 15%
    02:00 +30°C° 0 mm 4 mps 726 mmHg 17%
    03:00 +29°C° 0 mm 4 mps 727 mmHg 18%
    04:00 +28°C° 0 mm 3 mps 727 mmHg 20%
    05:00 +27°C° 0 mm 3 mps 727 mmHg 21%
    06:00 +29°C° 0 mm 2 mps 727 mmHg 21%
    07:00 +30°C° 0 mm 1 mps 728 mmHg 20%
    08:00 +29°C° 0 mm 0 mps 728 mmHg 19%
    09:00 +33°C° 0 mm 1 mps 728 mmHg 16%
    10:00 +36°C° 0 mm 1 mps 728 mmHg 13%
    11:00 +39°C° 0 mm 1 mps 728 mmHg 10%
    12:00 +40°C° 0 mm 3 mps 728 mmHg 9%
    13:00 +43°C° 0 mm 4 mps 727 mmHg 7%
    14:00 +45°C° 0 mm 6 mps 727 mmHg 6%
    15:00 +45°C° 0 mm 6 mps 727 mmHg 6%
    16:00 +45°C° 0 mm 5 mps 727 mmHg 6%
    17:00 +45°C° 0 mm 5 mps 726 mmHg 5%
    18:00 +42°C° 0 mm 5 mps 727 mmHg 7%
    19:00 +40°C° 0 mm 5 mps 727 mmHg 8%
    20:00 +38°C° 0 mm 4 mps 727 mmHg 9%
    21:00 +37°C° 0 mm 5 mps 728 mmHg 10%
    22:00 +36°C° 0 mm 5 mps 728 mmHg 12%
    23:00 +34°C° 0 mm 6 mps 728 mmHg 13%

    Day after tomorrow, 23 February, Saturday

    Time Temperature Precipitation Wind Pressure Humidity
    00:00 +33°C° 0 mm 5 mps 728 mmHg 19%
    01:00 +32°C° 0 mm 4 mps 727 mmHg 25%
    02:00 +30°C° 0 mm 4 mps 727 mmHg 32%
    03:00 +29°C° 0 mm 4 mps 727 mmHg 35%
    04:00 +29°C° 0 mm 3 mps 727 mmHg 38%
    05:00 +28°C° 0 mm 3 mps 727 mmHg 42%
    06:00 +29°C° 0 mm 2 mps 728 mmHg 39%
    07:00 +30°C° 0 mm 2 mps 728 mmHg 36%
    08:00 +31°C° 0 mm 1 mps 729 mmHg 33%
    09:00 +34°C° 0 mm 1 mps 729 mmHg 26%
    10:00 +38°C° 0 mm 2 mps 729 mmHg 20%
    11:00 +40°C° 0 mm 2 mps 729 mmHg 13%
    12:00 +42°C° 0 mm 3 mps 729 mmHg 12%
    13:00 +44°C° 0 mm 4 mps 728 mmHg 10%
    14:00 +46°C° 0 mm 5 mps 728 mmHg 9%
    15:00 +44°C° 0 mm 4 mps 727 mmHg 9%
    16:00 +44°C° 0 mm 4 mps 727 mmHg 9%
    17:00 +44°C° 0 mm 4 mps 727 mmHg 9%
    18:00 +43°C° 0 mm 5 mps 727 mmHg 10%
    19:00 +41°C° 0 mm 6 mps 728 mmHg 10%
    20:00 +40°C° 0 mm 8 mps 728 mmHg 11%
    21:00 +39°C° 0 mm 9 mps 729 mmHg 13%
    22:00 +37°C° 0 mm 10 mps 729 mmHg 14%
    23:00 +36°C° 0 mm 11 mps 730 mmHg 16%

    24 February, Sunday

    Time Temperature Precipitation Wind Pressure Humidity
    00:00 +34°C° 0 mm 9 mps 729 mmHg 22%
    01:00 +33°C° 0 mm 8 mps 729 mmHg 28%
    02:00 +32°C° 0 mm 7 mps 729 mmHg 34%
    03:00 +32°C° 0 mm 6 mps 729 mmHg 34%
    04:00 +30°C° 0 mm 5 mps 730 mmHg 35%
    05:00 +30°C° 0 mm 4 mps 730 mmHg 35%
    06:00 +30°C° 0 mm 5 mps 730 mmHg 34%
    07:00 +32°C° 0 mm 5 mps 731 mmHg 32%
    08:00 +32°C° 0 mm 5 mps 731 mmHg 31%
    09:00 +33°C° 0.1 mm 6 mps 731 mmHg 28%
    10:00 +35°C° 0.1 mm 6 mps 731 mmHg 24%
    11:00 +38°C° 0.1 mm 7 mps 731 mmHg 21%
    12:00 +39°C° 0 mm 6 mps 730 mmHg 20%
    13:00 +40°C° 0 mm 5 mps 730 mmHg 19%
    14:00 +40°C° 0 mm 4 mps 729 mmHg 17%
    15:00 +40°C° 0 mm 3 mps 729 mmHg 17%
    16:00 +40°C° 0 mm 3 mps 729 mmHg 16%
    17:00 +40°C° 0 mm 2 mps 729 mmHg 16%
    18:00 +39°C° 0 mm 3 mps 729 mmHg 17%
    19:00 +39°C° 0 mm 5 mps 730 mmHg 18%
    20:00 +39°C° 0 mm 6 mps 731 mmHg 19%
    21:00 +35°C° 0 mm 7 mps 731 mmHg 27%
    22:00 +32°C° 0 mm 8 mps 731 mmHg 35%
    23:00 +28°C° 0 mm 10 mps 731 mmHg 42%

    25 February, Monday

    Time Temperature Precipitation Wind Pressure Humidity
    00:00 +27°C° 0 mm 9 mps 731 mmHg 45%
    01:00 +26°C° 0 mm 9 mps 731 mmHg 49%
    02:00 +23°C° 0 mm 8 mps 731 mmHg 52%
    03:00 +23°C° 0 mm 8 mps 731 mmHg 54%
    04:00 +22°C° 0 mm 7 mps 731 mmHg 57%
    05:00 +22°C° 0 mm 7 mps 732 mmHg 59%
    06:00 +22°C° 0 mm 7 mps 732 mmHg 57%
    07:00 +23°C° 0 mm 7 mps 733 mmHg 55%
    08:00 +24°C° 0 mm 7 mps 733 mmHg 53%
    09:00 +28°C° 0 mm 7 mps 733 mmHg 44%
    10:00 +32°C° 0 mm 7 mps 733 mmHg 36%
    11:00 +34°C° 0 mm 8 mps 733 mmHg 27%
    12:00 +36°C° 0 mm 7 mps 732 mmHg 24%
    13:00 +39°C° 0 mm 6 mps 731 mmHg 20%
    14:00 +41°C° 0 mm 6 mps 731 mmHg 17%
    15:00 +41°C° 0 mm 5 mps 731 mmHg 16%
    16:00 +42°C° 0 mm 5 mps 731 mmHg 15%
    17:00 +42°C° 0 mm 5 mps 730 mmHg 14%
    18:00 +41°C° 0 mm 6 mps 731 mmHg 16%
    19:00 +39°C° 0 mm 7 mps 731 mmHg 18%
    20:00 +38°C° 0 mm 8 mps 731 mmHg 21%
    21:00 +34°C° 0 mm 9 mps 731 mmHg 29%
    22:00 +32°C° 0 mm 10 mps 731 mmHg 37%
    23:00 +29°C° 0 mm 11 mps 731 mmHg 46%

    26 February, Tuesday

    Time Temperature Precipitation Wind Pressure Humidity
    00:00 +28°C° 0 mm 10 mps 731 mmHg 49%
    01:00 +27°C° 0 mm 9 mps 731 mmHg 52%
    02:00 +26°C° 0 mm 8 mps 730 mmHg 55%
    03:00 +26°C° 0 mm 8 mps 731 mmHg 56%
    04:00 +24°C° 0 mm 7 mps 731 mmHg 57%
    05:00 +24°C° 0 mm 7 mps 731 mmHg 58%
    06:00 +26°C° 0 mm 7 mps 731 mmHg 53%
    07:00 +28°C° 0 mm 7 mps 731 mmHg 48%
    08:00 +29°C° 0 mm 7 mps 732 mmHg 43%
    09:00 +33°C° 0 mm 7 mps 732 mmHg 34%
    10:00 +36°C° 0 mm 7 mps 732 mmHg 25%
    11:00 +41°C° 0 mm 8 mps 732 mmHg 16%
    12:00 +43°C° 0 mm 7 mps 731 mmHg 13%
    13:00 +45°C° 0 mm 6 mps 730 mmHg 11%
    14:00 +46°C° 0 mm 6 mps 730 mmHg 9%
    15:00 +46°C° 0 mm 5 mps 729 mmHg 9%
    16:00 +46°C° 0 mm 5 mps 729 mmHg 8%
    17:00 +45°C° 0 mm 4 mps 729 mmHg 8%
    18:00 +44°C° 0 mm 4 mps 729 mmHg 9%
    19:00 +43°C° 0 mm 4 mps 729 mmHg 10%
    20:00 +41°C° 0 mm 5 mps 729 mmHg 11%
    21:00 +40°C° 0 mm 5 mps 729 mmHg 11%
    22:00 +40°C° 0 mm 6 mps 729 mmHg 12%
    23:00 +39°C° 0 mm 6 mps 728 mmHg 12%
    Show more